When you browse on this site, cookies collect data to enhance your experience and personalize the content and advertising you see.
Visit our Privacy Policy to learn more. By continuing to use the site, you agree to this use of cookies and data.
  • In Spain
  • List of Countries
  • For 7 days
  • Water Temperature
  • Weather Map
  • Weather Widgets
  • user-avatar
    Login

    Hourly Weather Neuquén

    Today, 13 December, Friday

    Time Temperature Precipitation Wind Pressure Humidity
    00:00 +18°C° 0 mm 3 mps 730 mmHg 14%
    01:00 +17°C° 0 mm 4 mps 729 mmHg 15%
    02:00 +18°C° 0 mm 4 mps 729 mmHg 15%
    03:00 +18°C° 0 mm 4 mps 729 mmHg 16%
    04:00 +19°C° 0 mm 4 mps 729 mmHg 16%
    05:00 +20°C° 0 mm 6 mps 729 mmHg 16%
    06:00 +21°C° 0 mm 8 mps 729 mmHg 16%
    07:00 +22°C° 0 mm 10 mps 729 mmHg 16%
    08:00 +23°C° 0 mm 10 mps 729 mmHg 17%
    09:00 +26°C° 0 mm 10 mps 729 mmHg 18%
    10:00 +27°C° 0 mm 10 mps 729 mmHg 20%
    11:00 +28°C° 0 mm 10 mps 729 mmHg 18%
    12:00 +29°C° 0 mm 10 mps 729 mmHg 17%
    13:00 +32°C° 0 mm 10 mps 728 mmHg 16%
    14:00 +31°C° 0 mm 11 mps 728 mmHg 16%
    15:00 +31°C° 0 mm 11 mps 728 mmHg 16%
    16:00 +31°C° 0 mm 12 mps 728 mmHg 16%
    17:00 +28°C° 0 mm 11 mps 728 mmHg 18%
    18:00 +26°C° 0 mm 10 mps 729 mmHg 21%
    19:00 +23°C° 0 mm 10 mps 730 mmHg 23%
    20:00 +21°C° 0 mm 8 mps 730 mmHg 26%
    21:00 +20°C° 0 mm 7 mps 731 mmHg 30%
    22:00 +19°C° 0 mm 6 mps 731 mmHg 33%
    23:00 +17°C° 0 mm 6 mps 731 mmHg 35%

    Tomorrow, 14 December, Saturday

    Time Temperature Precipitation Wind Pressure Humidity
    00:00 +17°C° 0 mm 5 mps 731 mmHg 36%
    01:00 +17°C° 0 mm 5 mps 731 mmHg 38%
    02:00 +16°C° 0 mm 5 mps 731 mmHg 41%
    03:00 +15°C° 0 mm 5 mps 731 mmHg 44%
    04:00 +14°C° 0 mm 4 mps 731 mmHg 47%
    05:00 +17°C° 0 mm 4 mps 732 mmHg 40%
    06:00 +19°C° 0 mm 4 mps 732 mmHg 33%
    07:00 +21°C° 0 mm 4 mps 733 mmHg 26%
    08:00 +22°C° 0 mm 4 mps 733 mmHg 23%
    09:00 +23°C° 0 mm 5 mps 732 mmHg 21%
    10:00 +26°C° 0 mm 5 mps 732 mmHg 18%
    11:00 +27°C° 0 mm 5 mps 731 mmHg 18%
    12:00 +28°C° 0 mm 4 mps 731 mmHg 17%
    13:00 +29°C° 0 mm 4 mps 730 mmHg 17%
    14:00 +29°C° 0 mm 3 mps 730 mmHg 17%
    15:00 +29°C° 0 mm 3 mps 730 mmHg 17%
    16:00 +30°C° 0 mm 3 mps 729 mmHg 16%
    17:00 +28°C° 0 mm 3 mps 730 mmHg 18%
    18:00 +26°C° 0 mm 3 mps 730 mmHg 20%
    19:00 +25°C° 0 mm 3 mps 730 mmHg 22%
    20:00 +23°C° 0 mm 6 mps 731 mmHg 24%
    21:00 +22°C° 0 mm 9 mps 731 mmHg 25%
    22:00 +19°C° 0 mm 12 mps 732 mmHg 27%
    23:00 +18°C° 0 mm 12 mps 732 mmHg 31%

    Day after tomorrow, 15 December, Sunday

    Time Temperature Precipitation Wind Pressure Humidity
    00:00 +17°C° 0 mm 11 mps 732 mmHg 34%
    01:00 +16°C° 0 mm 10 mps 732 mmHg 38%
    02:00 +16°C° 0 mm 10 mps 732 mmHg 39%
    03:00 +14°C° 0 mm 10 mps 733 mmHg 41%
    04:00 +14°C° 0 mm 10 mps 733 mmHg 43%
    05:00 +16°C° 0 mm 9 mps 733 mmHg 38%
    06:00 +18°C° 0 mm 8 mps 734 mmHg 33%
    07:00 +21°C° 0 mm 8 mps 735 mmHg 28%
    08:00 +22°C° 0 mm 7 mps 734 mmHg 25%
    09:00 +24°C° 0 mm 6 mps 734 mmHg 21%
    10:00 +26°C° 0 mm 6 mps 734 mmHg 18%
    11:00 +27°C° 0 mm 6 mps 733 mmHg 17%
    12:00 +28°C° 0 mm 6 mps 733 mmHg 15%
    13:00 +29°C° 0 mm 7 mps 732 mmHg 14%
    14:00 +29°C° 0 mm 8 mps 731 mmHg 14%
    15:00 +29°C° 0 mm 8 mps 731 mmHg 14%
    16:00 +29°C° 0 mm 9 mps 730 mmHg 14%
    17:00 +28°C° 0 mm 8 mps 730 mmHg 15%
    18:00 +27°C° 0 mm 8 mps 730 mmHg 17%
    19:00 +24°C° 0 mm 7 mps 730 mmHg 19%
    20:00 +23°C° 0 mm 8 mps 731 mmHg 22%
    21:00 +22°C° 0 mm 9 mps 731 mmHg 26%
    22:00 +21°C° 0 mm 9 mps 732 mmHg 29%
    23:00 +19°C° 0 mm 9 mps 731 mmHg 32%

    16 December, Monday

    Time Temperature Precipitation Wind Pressure Humidity
    00:00 +18°C° 0 mm 9 mps 731 mmHg 35%
    01:00 +17°C° 0 mm 9 mps 731 mmHg 37%
    02:00 +17°C° 0 mm 9 mps 731 mmHg 38%
    03:00 +16°C° 0 mm 9 mps 731 mmHg 38%
    04:00 +16°C° 0 mm 8 mps 731 mmHg 38%
    05:00 +18°C° 0 mm 8 mps 732 mmHg 33%
    06:00 +21°C° 0 mm 7 mps 732 mmHg 28%
    07:00 +23°C° 0 mm 6 mps 733 mmHg 23%
    08:00 +25°C° 0 mm 5 mps 732 mmHg 21%
    09:00 +26°C° 0 mm 3 mps 732 mmHg 20%
    10:00 +27°C° 0 mm 1 mps 732 mmHg 19%
    11:00 +28°C° 0 mm 2 mps 731 mmHg 17%
    12:00 +29°C° 0 mm 3 mps 731 mmHg 15%
    13:00 +30°C° 0 mm 4 mps 730 mmHg 13%
    14:00 +32°C° 0 mm 4 mps 729 mmHg 12%
    15:00 +32°C° 0 mm 4 mps 729 mmHg 12%
    16:00 +32°C° 0 mm 4 mps 728 mmHg 11%
    17:00 +29°C° 0 mm 3 mps 728 mmHg 12%
    18:00 +27°C° 0 mm 3 mps 728 mmHg 14%
    19:00 +25°C° 0 mm 2 mps 728 mmHg 15%
    20:00 +25°C° 0 mm 4 mps 728 mmHg 17%
    21:00 +23°C° 0 mm 5 mps 728 mmHg 18%
    22:00 +23°C° 0 mm 6 mps 728 mmHg 19%
    23:00 +22°C° 0 mm 6 mps 728 mmHg 22%

    17 December, Tuesday

    Time Temperature Precipitation Wind Pressure Humidity
    00:00 +21°C° 0 mm 7 mps 728 mmHg 25%
    01:00 +20°C° 0 mm 7 mps 728 mmHg 28%
    02:00 +18°C° 0 mm 7 mps 728 mmHg 31%
    03:00 +17°C° 0 mm 6 mps 728 mmHg 33%
    04:00 +16°C° 0 mm 6 mps 728 mmHg 36%
    05:00 +20°C° 0 mm 6 mps 729 mmHg 31%
    06:00 +22°C° 0 mm 6 mps 729 mmHg 27%
    07:00 +24°C° 0 mm 7 mps 729 mmHg 22%
    08:00 +26°C° 0 mm 7 mps 729 mmHg 20%
    09:00 +28°C° 0 mm 7 mps 728 mmHg 19%
    10:00 +29°C° 0 mm 7 mps 728 mmHg 17%
    11:00 +32°C° 0 mm 7 mps 727 mmHg 16%
    12:00 +33°C° 0 mm 6 mps 727 mmHg 15%
    13:00 +34°C° 0 mm 6 mps 726 mmHg 15%
    14:00 +35°C° 0 mm 7 mps 726 mmHg 14%
    15:00 +35°C° 0 mm 7 mps 725 mmHg 13%
    16:00 +37°C° 0 mm 8 mps 725 mmHg 12%
    17:00 +34°C° 0 mm 9 mps 725 mmHg 15%
    18:00 +31°C° 0 mm 10 mps 726 mmHg 18%
    19:00 +28°C° 0 mm 11 mps 726 mmHg 21%
    20:00 +26°C° 0 mm 10 mps 726 mmHg 26%
    21:00 +24°C° 0 mm 9 mps 727 mmHg 31%
    22:00 +22°C° 0 mm 9 mps 727 mmHg 37%
    23:00 +21°C° 0 mm 8 mps 727 mmHg 39%

    18 December, Wednesday

    Time Temperature Precipitation Wind Pressure Humidity
    00:00 +20°C° 0 mm 7 mps 727 mmHg 41%
    01:00 +20°C° 0 mm 6 mps 727 mmHg 43%
    02:00 +19°C° 0 mm 5 mps 726 mmHg 44%
    03:00 +19°C° 0 mm 5 mps 726 mmHg 44%
    04:00 +19°C° 0 mm 4 mps 726 mmHg 45%
    05:00 +20°C° 0 mm 7 mps 726 mmHg 41%
    06:00 +22°C° 0 mm 9 mps 726 mmHg 37%
    07:00 +24°C° 0 mm 11 mps 726 mmHg 33%
    08:00 +27°C° 0 mm 11 mps 726 mmHg 29%
    09:00 +28°C° 0 mm 11 mps 726 mmHg 25%
    10:00 +29°C° 0 mm 11 mps 725 mmHg 22%
    11:00 +32°C° 0 mm 12 mps 725 mmHg 19%
    12:00 +33°C° 0 mm 13 mps 724 mmHg 16%
    13:00 +36°C° 0 mm 14 mps 724 mmHg 13%
    14:00 +33°C° 0 mm 14 mps 724 mmHg 18%
    15:00 +31°C° 0 mm 14 mps 724 mmHg 23%
    16:00 +28°C° 0 mm 14 mps 724 mmHg 28%
    17:00 +26°C° 0 mm 12 mps 725 mmHg 29%
    18:00 +24°C° 0 mm 11 mps 725 mmHg 31%
    19:00 +22°C° 0 mm 9 mps 726 mmHg 33%
    20:00 +21°C° 0 mm 8 mps 726 mmHg 35%
    21:00 +20°C° 0 mm 7 mps 727 mmHg 37%
    22:00 +18°C° 0 mm 7 mps 727 mmHg 39%
    23:00 +17°C° 0 mm 5 mps 727 mmHg 42%
    Show more